contact:dominique.lefevre@mio.osupytheas.fr, maurice.libes@osupytheas.fr
Project:EMSO Ligure-ouest http://www.emso-fr.org/EMSO-France
Sensor Aquadopp, line 04 Serial AQD8517 
DOI : "https://doi.org/10.17882/74513; https://doi.org/10.17882/83244" 
Title:EMSO Ligure Ouest : Data ligne ALBATROSS capteur AQUADOPP - deploiement 2021
Id,Date,Profondeur,Latitude,Longitude,X_East,Y_North,Z_Up,Amplitude_X,Amplitude_Y,Amplitude_Z,Batterie,SoundSpeed,Heading,Pitch,Roll,Pressure,Temperature,Speed,Direction
, , m, degrees North, degrees East, m.s-1, m.s-1,m.s-1, 1, 1, 1, Volt, m.s-1, degree, degree, degree, dbar, degree_C, m.s-1, degree
01,2021-11-24T21:30:00,500.0,42.79,6.0312,0.0,0.033,0.009,48.0,46.0,44.0,12.6,1506.0,316.7,-0.1,0.7,452.23,13.7,0.033,0.0
01,2021-11-24T22:00:00,500.0,42.79,6.0312,-0.015,0.014,0.014,55.0,45.0,48.0,12.6,1506.0,324.2,-0.1,0.6,452.189,13.7,0.02,313.0
01,2021-11-24T22:30:00,500.0,42.79,6.0312,-0.003,0.007,0.0,48.0,47.0,47.0,12.6,1506.0,315.9,-0.2,0.7,452.237,13.7,0.007,336.8
01,2021-11-24T23:00:00,500.0,42.79,6.0312,-0.016,0.01,0.006,48.0,44.0,44.0,12.6,1506.0,324.6,-0.1,0.7,452.176,13.7,0.018,302.0
01,2021-11-24T23:30:00,500.0,42.79,6.0312,-0.007,0.03,0.018,52.0,45.0,46.0,12.6,1506.0,330.0,-0.2,0.7,452.169,13.7,0.03,346.9
01,2021-11-25T00:00:00,500.0,42.79,6.0312,-0.013,0.018,0.001,51.0,48.0,45.0,12.6,1506.0,333.8,-0.1,0.8,452.119,13.7,0.022,324.2
01,2021-11-25T00:30:00,500.0,42.79,6.0312,-0.003,0.03,0.012,47.0,43.0,44.0,12.6,1506.0,340.1,-0.2,0.7,452.141,13.7,0.03,354.3
01,2021-11-25T01:00:00,500.0,42.79,6.0312,-0.015,0.019,0.005,48.0,46.0,43.0,12.6,1506.0,338.2,-0.2,0.7,452.139,13.7,0.024,321.7
01,2021-11-25T01:30:00,500.0,42.79,6.0312,-0.013,0.014,0.005,50.0,45.0,43.0,12.6,1506.0,329.8,-0.1,0.8,452.207,13.7,0.019,317.1
01,2021-11-25T02:00:00,500.0,42.79,6.0312,-0.016,0.016,0.039,48.0,45.0,47.0,12.6,1506.0,337.4,-0.2,0.6,452.141,13.69,0.022,315.0
01,2021-11-25T02:30:00,500.0,42.79,6.0312,-0.012,0.015,0.0,49.0,45.0,43.0,12.6,1506.0,348.6,-0.2,0.6,452.137,13.69,0.019,321.3
01,2021-11-25T03:00:00,500.0,42.79,6.0312,-0.014,0.008,0.008,48.0,44.0,45.0,12.6,1506.0,348.9,-0.2,0.7,452.105,13.69,0.016,299.7
01,2021-11-25T03:30:00,500.0,42.79,6.0312,-0.019,0.013,0.007,51.0,44.0,43.0,12.6,1506.0,358.3,-0.1,0.7,452.157,13.69,0.023,304.4
01,2021-11-25T04:00:00,500.0,42.79,6.0312,-0.02,0.002,0.0,50.0,44.0,42.0,12.6,1506.0,7.7,-0.1,0.8,452.099,13.69,0.02,275.7
01,2021-11-25T04:30:00,500.0,42.79,6.0312,0.002,0.0,-0.016,46.0,44.0,46.0,12.6,1506.0,353.7,-0.2,0.7,452.098,13.7,0.002,90.0
01,2021-11-25T05:00:00,500.0,42.79,6.0312,-0.001,0.005,-0.007,53.0,44.0,44.0,12.6,1506.0,344.1,-0.3,0.7,452.105,13.71,0.005,348.7
01,2021-11-25T05:30:00,500.0,42.79,6.0312,0.0,0.004,0.007,48.0,46.0,44.0,12.6,1506.0,351.0,-0.1,0.6,452.1,13.7,0.004,0.0
01,2021-11-25T06:00:00,500.0,42.79,6.0312,-0.003,0.012,-0.017,47.0,44.0,42.0,12.6,1506.0,359.6,-0.2,0.6,452.139,13.7,0.012,346.0
01,2021-11-25T06:30:00,500.0,42.79,6.0312,0.002,0.017,0.007,45.0,44.0,46.0,12.6,1506.0,359.8,-0.2,0.7,452.143,13.7,0.017,6.7
01,2021-11-25T07:00:00,500.0,42.79,6.0312,-0.011,0.028,0.011,47.0,44.0,51.0,12.6,1506.0,22.1,-0.2,0.6,452.208,13.7,0.03,338.6
01,2021-11-25T07:30:00,500.0,42.79,6.0312,0.006,0.025,0.012,46.0,45.0,49.0,12.6,1506.0,17.1,-0.2,0.6,452.194,13.7,0.025,13.5
01,2021-11-25T08:00:00,500.0,42.79,6.0312,-0.002,0.023,0.012,50.0,48.0,44.0,12.6,1506.0,15.6,-0.1,0.6,452.213,13.7,0.023,355.0
01,2021-11-25T08:30:00,500.0,42.79,6.0312,0.004,0.008,0.01,49.0,46.0,49.0,12.6,1506.0,9.9,-0.1,0.6,452.285,13.7,0.008,26.6
01,2021-11-25T09:00:00,500.0,42.79,6.0312,-0.001,0.017,0.001,49.0,43.0,49.0,12.6,1506.0,300.4,-0.1,0.7,452.241,13.71,0.017,356.6
01,2021-11-25T09:30:00,500.0,42.79,6.0312,0.005,0.014,-0.007,49.0,44.0,45.0,12.6,1506.0,281.7,-0.2,0.6,452.298,13.72,0.014,19.6
01,2021-11-25T10:00:00,500.0,42.79,6.0312,-0.003,0.01,0.016,50.0,50.0,47.0,12.6,1506.0,273.4,-0.1,0.7,452.328,13.72,0.01,343.3
01,2021-11-25T10:30:00,500.0,42.79,6.0312,0.002,0.02,0.017,53.0,44.0,49.0,12.6,1506.0,214.1,-0.2,0.7,452.277,13.7,0.02,5.7
01,2021-11-25T11:00:00,500.0,42.79,6.0312,0.008,0.018,-0.002,51.0,45.0,46.0,12.6,1506.0,217.8,-0.1,0.7,452.279,13.7,0.019,24.0
01,2021-11-25T11:30:00,500.0,42.79,6.0312,-0.003,0.012,0.01,51.0,47.0,49.0,12.6,1506.0,227.1,-0.1,0.7,452.327,13.7,0.012,346.0
01,2021-11-25T12:00:00,500.0,42.79,6.0312,-0.002,0.0,0.011,57.0,47.0,47.0,12.6,1506.0,266.5,-0.2,0.7,452.332,13.7,0.002,270.0
01,2021-11-25T12:30:00,500.0,42.79,6.0312,0.018,0.012,0.009,52.0,54.0,44.0,12.6,1506.0,328.4,-0.2,0.7,452.291,13.71,0.021,56.3
01,2021-11-25T13:00:00,500.0,42.79,6.0312,0.01,0.011,0.008,53.0,46.0,50.0,12.6,1506.0,343.7,-0.1,0.6,452.29,13.7,0.014,42.3
01,2021-11-25T13:30:00,500.0,42.79,6.0312,0.007,0.01,-0.01,56.0,50.0,48.0,12.6,1506.0,319.7,-0.2,0.7,452.237,13.7,0.012,35.0
01,2021-11-25T14:00:00,500.0,42.79,6.0312,0.009,0.004,-0.001,53.0,49.0,47.0,12.6,1506.0,316.9,-0.2,0.7,452.311,13.7,0.009,66.0
01,2021-11-25T14:30:00,500.0,42.79,6.0312,0.01,0.002,0.019,51.0,46.0,46.0,12.6,1506.0,323.0,-0.1,0.6,452.274,13.7,0.01,78.7
01,2021-11-25T15:00:00,500.0,42.79,6.0312,0.001,0.005,0.012,51.0,45.0,48.0,12.6,1506.0,317.4,-0.1,0.5,452.19,13.7,0.005,11.3
01,2021-11-25T15:30:00,500.0,42.79,6.0312,0.008,0.015,-0.015,52.0,49.0,51.0,12.6,1506.0,337.8,-0.2,0.6,452.213,13.71,0.017,28.1
01,2021-11-25T16:00:00,500.0,42.79,6.0312,0.006,0.003,-0.003,46.0,45.0,49.0,12.6,1506.0,340.0,-0.2,0.6,452.182,13.71,0.006,63.4
01,2021-11-25T16:30:00,500.0,42.79,6.0312,-0.013,0.01,-0.009,50.0,44.0,46.0,12.6,1506.0,343.4,-0.1,0.7,452.226,13.71,0.016,307.6
01,2021-11-25T17:00:00,500.0,42.79,6.0312,-0.006,0.0,-0.008,50.0,48.0,48.0,12.6,1506.0,332.1,-0.1,0.6,452.252,13.72,0.006,270.0
01,2021-11-25T17:30:00,500.0,42.79,6.0312,-0.014,0.001,0.001,49.0,45.0,44.0,12.6,1506.1,333.0,-0.2,0.6,452.161,13.74,0.014,274.1
01,2021-11-25T18:00:00,500.0,42.79,6.0312,-0.001,0.019,0.002,52.0,48.0,45.0,12.6,1506.0,336.5,-0.2,0.7,452.178,13.73,0.019,357.0
01,2021-11-25T18:30:00,500.0,42.79,6.0312,-0.015,0.014,0.005,51.0,48.0,47.0,12.6,1506.0,350.1,-0.2,0.6,452.177,13.72,0.02,313.0
01,2021-11-25T19:00:00,500.0,42.79,6.0312,-0.019,0.019,0.015,49.0,48.0,46.0,12.6,1506.0,359.9,-0.1,0.7,452.167,13.71,0.026,315.0
01,2021-11-25T19:30:00,500.0,42.79,6.0312,-0.003,0.017,-0.007,53.0,49.0,48.0,12.6,1506.0,6.4,-0.1,0.7,452.209,13.71,0.017,350.0
01,2021-11-25T20:00:00,500.0,42.79,6.0312,0.0,0.016,0.012,52.0,44.0,47.0,12.6,1506.0,11.0,-0.1,0.6,452.188,13.71,0.016,0.0
01,2021-11-25T20:30:00,500.0,42.79,6.0312,0.003,0.021,0.003,51.0,49.0,45.0,12.6,1506.0,16.6,-0.1,0.8,452.149,13.71,0.021,8.1
01,2021-11-25T21:00:00,500.0,42.79,6.0312,0.007,0.012,0.012,49.0,46.0,45.0,12.6,1506.0,20.6,-0.1,0.7,452.233,13.71,0.013,30.3
